Find Local Weather

World > North America > United States > New Jersey

Middleville, New Jersey Regional Weather

Lat: 41.06N, Lon: 74.86W
Wx Zone: NJZ001
Warning FLW WEATHER ALERT - (More Info. Click Here) Warning
Feedback

Middleville, NJ Regional Weather

Expires:201905212200;;241972
ASUS41 KOKX 212114
RWROKX

Regional Weather Roundup
National Weather Service New York NY
500 PM EDT TUE MAY 21 2019

Note: "FAIR" indicates few or no clouds below 12,000 feet with no
significant weather and/or obstructions to visibility.


NJZ001-105-106-008-010-013-015-019>022-104-212200-
New Jersey
  
CITY           SKY/WX    TMP DP  RH WIND       PRES   REMARKS
Newark/Liberty FAIR      73  33  23 NW24G31   29.92R                  
Teterboro      FAIR      72  37  28 NW20G28   29.91S                  
Caldwell       FAIR      72  34  24 NW16G31   29.94R                  
Somerville     FAIR      73  37  27 NW14G21   29.94R                  
Linden         NOT AVBL                                               
Perth Amboy      N/A     70 N/A N/A NW23G29     N/A                   
Sussex         FAIR      69  36  29 W16G26    29.97R                  
Andover          N/A     69  36  29 NW10G20   29.98R                  
Trenton        FAIR      71  40  32 NW16G24   29.96R                  
Millville      FAIR      71  41  33 NW8G21    29.99R                  
Atlantic City  FAIR      73  42  32 NW16G26   29.97R                  
Wrightstown    FAIR      71  41  33 W17       29.94                   
Toms River     FAIR      71  42  35 NW16      29.96S                  
Belmar         FAIR      71  41  33 W10       29.95S                  
$$
 

SKY/WX - Weather  TMP - Temperature  DP - Dew Point  RH - Relative Humidity
WIND - Wind Direction/Speed PRES - Barometric Pressure VSB - Visibility
WCI - Wind Chill Index E13G22 Wind - East Wind 13 mph/Gusts of 22 mph